FW8607 Weather Reports


Display with metric or nautical units.
time (UTC)temp
F
wind
direction
speed
MPH
gust
MPH
rain 1hr
in
rain 24hr
in
rain mn
in
humidity
%
barometer
mb
20260902233019 78 248 9.0 17.0 0.00 0.00 0.00 55 1013.9
20260902230019 78 248 11.0 18.0 0.00 0.00 0.00 55 1014.0
20260902223019 79 248 12.0 19.0 0.00 0.00 0.00 54 1014.2
20260902220019 79 248 12.0 21.0 0.00 0.00 0.00 54 1014.3
20260902213019 80 248 13.0 22.0 0.00 0.00 0.00 52 1014.4
20260902210019 82 248 10.0 19.0 0.00 0.00 0.00 47 1014.6
20260902203019 84 248 9.0 15.0 0.00 0.00 0.00 40 1014.5
20260902200019 83 248 7.0 14.0 0.00 0.00 0.00 38 1015.1
20260902193019 83 248 7.0 16.0 0.00 0.00 0.00 41 1015.4
20260902190018 82 248 7.0 13.0 0.00 0.00 0.00 38 1015.7
20260902183018 79 248 8.0 14.0 0.00 0.00 0.00 40 1015.9
20260902180039 77 270 5.0 12.0 0.00 0.00 0.00 58 1015.8
20260902173018 76 270 2.0 9.0 0.00 0.00 0.00 63 1015.9
20260902170018 71 293 1.0 7.0 0.00 0.00 0.00 71 1015.8
20260902163018 68 293 3.0 7.0 0.00 0.00 0.00 79 1015.7
20260902160018 65 315 1.0 8.0 0.00 0.00 0.00 87 1015.8
20260902153019 63 0.0 4.0 0.00 0.00 0.00 94 1015.6
20260902150018 61 68 1.0 5.0 0.00 0.00 0.00 95 1015.7
20260902143018 60 203 1.0 3.0 0.00 0.00 0.00 95 1015.8
20260902140018 58 203 2.0 4.0 0.00 0.00 0.00 94 1015.6
20260902133018 58 203 1.0 4.0 0.00 0.00 0.00 94 1015.1
20260902130018 59 113 1.0 3.0 0.00 0.00 0.00 93 1014.8
20260902123018 60 113 3.0 6.0 0.00 0.00 0.00 93 1014.7
20260902120018 61 113 3.0 6.0 0.00 0.00 0.00 91 1014.7
20260902113038 61 158 1.0 4.0 0.00 0.00 0.00 91 1015.2
20260902110017 62 68 1.0 4.0 0.00 0.00 0.00 91 1015.2
20260902103018 62 0.0 0.0 0.00 0.00 0.00 91 1015.5
20260902100018 62 0.0 0.0 0.00 0.00 0.00 91 1015.7
20260902093020 62 0.0 0.0 0.00 0.00 0.00 91 1015.7
20260902090039 62 158 1.0 4.0 0.00 0.00 0.00 91 1015.9
20260902083019 62 158 1.0 4.0 0.00 0.00 0.00 90 1015.9
20260902080019 63 0.0 0.0 0.00 0.00 0.00 90 1016.1
20260902073019 63 0.0 0.0 0.00 0.00 0.00 89 1015.9
20260902070019 64 270 1.0 2.0 0.00 0.00 0.00 89 1015.6
20260902063019 64 270 2.0 4.0 0.00 0.00 0.00 89 1015.5
20260902060019 64 270 2.0 4.0 0.00 0.00 0.00 87 1015.2
20260902053019 65 248 2.0 4.0 0.00 0.00 0.00 86 1015.1
20260902050039 66 248 3.0 4.0 0.00 0.00 0.00 85 1014.9
20260902043019 67 248 3.0 5.0 0.00 0.00 0.00 84 1014.7
20260902040019 68 248 3.0 5.0 0.00 0.00 0.00 82 1014.2
20260902033019 69 270 3.0 6.0 0.00 0.00 0.00 80 1013.7
20260902030019 70 270 6.0 9.0 0.00 0.00 0.00 78 1013.3
20260902023018 72 248 7.0 12.0 0.00 0.00 0.00 74 1013.0
20260902020038 75 248 7.0 12.0 0.00 0.00 0.00 68 1013.1
20260902013018 77 248 7.0 12.0 0.00 0.00 0.00 61 1013.3
20260902010018 79 248 7.0 15.0 0.00 0.00 0.00 57 1013.4
20260902003018 81 248 7.0 14.0 0.00 0.00 0.00 53 1013.5
20260902000018 81 248 10.0 16.0 0.00 0.00 0.00 53 1013.6